Regional Weather Roundup
Issued by NWS Charleston, WV

Home | Current Version | Previous Version | Graphics & Text | Print | Product List | Glossary On
Versions: 1 2 3 4 5 6 7 8 9 10 11 12 13 14 15 16 17 18 19 20 21 22 23 24 25 26 27 28 29 30 31 32 33 34 35 36 37 38 39 40 41 42 43 44 45 46 47 48 49 50
000
ASUS41 KRLX 241410
RWRRLX
West Virginia Regional Weather Roundup
National Weather Service Charleston WV
900 AM EST SAT JAN 24 2015

Note: "fair" indicates few or no clouds below 12,000 feet with no
significant weather and/or obstructions to visibility.

WVZ003-241500-
Northern Panhandle of West Virginia

CITY           SKY/WX    TMP DP  RH WIND       PRES   REMARKS
WHEELING       CLOUDY    28  24  85 W6        29.66S FOG
$$

WVZ009-241500-
Northwest West Virginia

CITY           SKY/WX    TMP DP  RH WIND       PRES   REMARKS
PARKERSBURG    CLOUDY    29  26  89 W10       29.74S FOG
$$

WVZ006-241500-
Western West Virginia

CITY           SKY/WX    TMP DP  RH WIND       PRES   REMARKS
HUNTINGTON     CLOUDY    30  29  96 NW7       29.76R FOG
$$

WVZ015-241500-
West Central West Virginia

CITY           SKY/WX    TMP DP  RH WIND       PRES   REMARKS
CHARLESTON     LGT SNOW  31  29  92 W7        29.73R VSB 1
$$

WVZ022-031-241500-
North Central West Virginia

CITY           SKY/WX    TMP DP  RH WIND       PRES   REMARKS
CLARKSBURG     LGT SNOW  31  30  96 W7        29.66S VSB 3/4
MORGANTOWN     CLOUDY    31  27  85 CALM      29.65F FOG
$$

WVZ025-035-042-045-241500-
Southern West Virginia

CITY           SKY/WX    TMP DP  RH WIND       PRES   REMARKS
BECKLEY        LGT SNOW  29  27  92 NW12      29.63R FOG
LOGAN          SNOW      30  30 100 NW9       29.71R VSB 1/2
BLUEFIELD      LGT SNOW  31  27  85 NW9G20    29.63R FOG
LEWISBURG      CLOUDY    35  32  89 W6        29.59S
$$

WVZ047-241500-
Northern Mountains of West Virginia

CITY           SKY/WX    TMP DP  RH WIND       PRES   REMARKS
ELKINS         CLOUDY    32  31  96 N7        29.60F
$$

WVZ052-241500-
Eastern Panhandle of West Virginia

CITY           SKY/WX    TMP DP  RH WIND       PRES   REMARKS
MARTINSBURG    CLOUDY    35  31  85 N3        29.56F FOG
PETERSBURG     CLOUDY    34  33  99 CALM      29.59F FOG
$$



USA.gov is the U.S. government's official web portal to all federal, state and local government web resources and services.